Theta_e
304 318 325 331 331 335 336 334 332 331 331 329 330 328 332 332 332 331 331 332 330 329 328 328 330 329 328 326 324 323 323 323
300 301 307 322 320 331 337 334 334 330 329 327 327 327 328 330 331 331 330 331 330 328 328 328 330 329 328 327 326 323 323 325
298 298 297 299 309 322 333 336 334 332 331 330 330 329 328 329 330 329 330 330 330 328 327 328 329 329 327 327 326 323 325 325
299 299 298 299 302 307 325 336 335 334 334 332 329 329 328 327 329 329 330 330 330 330 328 328 329 330 329 328 328 326 324 323
297 298 298 298 301 316 321 333 335 335 335 333 331 331 329 331 330 331 332 332 331 331 330 329 330 331 330 330 330 329 328 324
297 297 298 298 298 306 328 333 336 336 335 335 332 331 333 329 330 331 332 332 333 333 333 331 330 333 332 332 331 329 330 329
296 296 296 297 296 297 317 330 335 336 336 336 333 333 332 329 330 331 331 332 333 334 334 334 333 333 333 333 332 331 331 330
295 295 297 301 302 303 309 327 332 336 336 337 336 335 334 332 330 332 330 331 330 334 335 334 334 333 334 334 332 331 331 329
296 296 298 304 308 309 310 324 329 334 336 336 337 337 336 334 332 332 332 332 333 333 335 336 335 334 334 334 333 332 331 329
298 298 299 305 311 313 314 322 327 332 334 335 335 336 334 333 331 332 333 332 331 330 333 334 335 335 335 335 333 331 330 330
300 299 300 308 313 316 317 321 324 328 330 330 330 331 332 330 328 329 328 329 328 328 330 333 333 332 332 332 332 332 329 328
300 305 307 313 316 316 317 319 321 321 321 319 320 321 323 324 325 325 326 325 327 331 332 331 331 330 330 329 327 325 325 323
308 312 316 317 316 317 319 318 321 321 321 321 322 322 322 322 322 322 322 324 327 329 330 330 328 328 327 327 325 323 323 320
312 316 317 317 317 318 317 319 322 327 326 324 325 327 327 326 325 325 326 326 327 327 327 327 326 325 323 322 322 320 319 318
306 315 316 317 318 318 318 318 319 323 325 325 325 325 326 326 326 325 325 326 325 325 325 324 322 319 317 315 315 313 312 311
299 309 316 317 317 318 318 318 319 322 321 322 322 324 325 325 324 323 322 322 322 321 318 315 314 313 312 311 310 309 307 306
299 301 312 317 318 319 319 318 319 323 321 320 320 321 321 322 321 320 319 316 315 314 312 310 308 305 297 299 305 306 304 303
299 302 303 314 319 320 319 318 318 320 321 319 318 319 319 319 317 315 313 312 311 308 308 307 303 301 296 297 297 303 301 299
301 300 304 311 316 319 320 319 319 320 319 319 320 319 317 316 314 312 308 309 307 306 304 302 300 295 293 293 293 296 294 292
Wind_Speed
15 16 13 15 13 12 13 13 14 14 8 6 5 5 8 8 9 10 12 10 11 10 6 6 7 6 5 4 5 4 4 4
11 15 15 14 10 12 15 15 16 12 11 11 9 13 10 9 9 12 12 11 12 11 8 7 8 8 9 9 6 6 5 3
10 10 9 12 17 18 15 16 15 16 12 12 8 9 9 8 7 9 11 12 12 12 11 9 11 8 8 8 8 4 5 6
11 8 10 6 11 17 19 19 19 18 17 9 3 4 3 6 9 10 12 14 13 14 14 11 11 11 9 10 11 11 7 4
10 8 8 10 13 10 14 14 17 16 17 14 18 14 10 10 10 9 9 13 14 13 13 13 11 10 12 11 9 9 8 7
12 12 11 10 7 12 13 13 13 14 18 17 14 13 10 3 4 9 10 9 13 13 13 12 13 10 12 12 10 12 10 8
11 9 6 8 5 8 9 14 16 16 17 17 18 18 11 7 8 9 8 7 9 12 12 12 12 11 11 11 12 13 12 11
9 8 7 9 10 9 9 15 17 17 18 17 17 17 14 13 10 9 9 7 6 12 13 12 10 11 11 9 10 12 12 11
8 8 9 10 10 10 11 15 15 17 18 18 15 14 10 9 9 7 7 8 8 9 11 11 12 12 12 11 9 9 10 10
9 10 10 11 9 11 14 13 13 15 16 13 14 12 11 10 9 8 7 7 5 7 10 11 11 12 12 12 9 10 9 10
9 10 10 9 9 8 9 11 14 14 13 12 10 10 9 7 7 9 8 6 6 6 7 8 8 9 9 10 9 9 8 7
7 8 8 8 6 7 8 10 11 12 10 8 8 7 7 7 7 6 7 6 7 8 8 8 8 9 9 9 8 8 9 7
8 7 8 6 6 7 9 8 9 7 7 8 8 7 7 7 6 6 6 6 6 7 7 7 7 7 8 9 9 8 9 8
5 6 6 7 6 6 6 7 9 10 8 9 8 8 8 7 7 6 6 6 6 6 6 6 6 6 7 6 6 6 6 8
6 7 8 6 6 5 6 5 6 11 8 8 8 9 9 8 8 8 7 6 6 5 5 5 6 5 5 6 6 7 9 8
8 8 7 6 6 7 5 6 8 10 11 12 14 12 10 9 8 8 7 7 6 5 6 5 5 6 5 8 9 11 10 10
8 8 7 8 8 7 7 8 9 10 9 12 12 12 11 11 9 7 8 8 8 7 6 7 7 5 13 15 13 10 11 10
9 9 8 8 10 12 13 10 7 8 9 6 5 8 10 9 9 9 8 8 11 10 9 9 8 6 15 15 12 11 10 9
11 7 9 9 7 9 9 12 15 14 10 8 9 7 8 8 9 9 8 8 11 11 11 10 11 7 13 15 14 11 9 9
Wind_Direction
233 235 211 214 203 191 186 190 195 188 177 166 175 177 198 194 199 200 191 196 191 193 197 182 176 184 196 182 183 201 189 200
222 230 228 207 210 196 188 185 189 174 183 181 192 203 198 204 206 203 196 195 192 194 199 183 186 198 198 196 194 191 225 165
250 228 228 193 198 205 198 197 183 187 190 200 199 193 211 209 202 204 199 195 191 194 198 197 196 199 197 189 188 184 210 180
254 212 226 189 193 199 204 196 190 190 192 176 136 123 102 181 204 204 203 195 195 197 201 202 200 202 206 200 198 196 208 190
245 209 208 221 218 196 207 202 193 188 180 182 193 197 193 208 205 206 199 196 197 198 203 203 202 204 210 207 197 205 196 205
240 225 211 218 222 196 198 193 194 189 186 189 191 203 203 159 160 179 191 191 200 201 202 199 205 203 213 209 200 204 203 209
239 241 242 252 235 211 198 193 196 184 188 189 191 200 193 174 177 184 188 189 197 206 202 206 210 211 209 209 209 207 208 217
227 236 234 246 233 214 207 201 199 190 185 191 193 198 197 198 183 183 171 180 192 207 200 204 207 206 210 206 204 211 214 214
244 233 228 236 235 210 194 198 196 186 185 192 193 196 200 200 188 181 188 192 200 191 200 205 206 206 210 209 212 213 211 213
267 277 248 243 232 211 197 190 191 185 192 184 191 190 189 190 183 179 190 192 190 180 188 197 205 210 211 212 217 213 206 210
282 271 282 245 224 196 180 186 191 183 180 182 180 178 185 178 167 183 185 185 175 174 185 199 203 205 204 206 221 222 206 205
283 298 294 265 205 177 165 169 165 172 171 157 156 169 172 166 177 180 182 162 169 183 188 188 190 200 193 195 198 180 188 179
282 299 272 232 205 188 179 163 153 152 153 141 157 157 159 162 173 168 158 170 173 180 181 180 178 186 186 193 193 184 179 177
253 261 247 242 216 189 167 168 155 159 150 150 153 155 156 157 151 157 160 161 183 169 170 174 178 179 181 184 186 183 181 168
248 233 218 213 191 190 161 164 157 169 160 165 174 175 174 172 167 169 165 163 168 168 176 178 173 160 149 139 126 119 111 90
244 243 223 209 197 163 198 180 177 174 180 186 192 187 177 178 180 165 154 162 158 147 130 115 115 126 133 122 113 110 96 88
277 274 255 208 205 215 202 193 184 182 193 193 179 170 167 176 168 160 162 151 135 129 124 121 107 100 115 116 121 112 109 112
309 287 272 254 214 202 196 182 163 192 199 193 184 168 163 166 148 147 155 149 129 123 115 112 103 100 112 105 105 115 114 111
277 252 260 247 236 221 205 178 177 182 188 187 195 178 167 158 145 147 139 140 132 125 117 115 111 98 93 92 85 90 89 90